Regional Weather Roundup
Issued by NWS

Home | Current Version | Previous Version | Graphics & Text | Print | Product List | Glossary On
Versions: 1 2 3 4 5 6 7 8 9 10 11 12 13 14 15 16 17 18 19 20 21 22 23 24 25 26 27 28 29 30 31 32 33 34 35 36 37 38 39 40 41 42 43 44 45 46 47 48 49 50
000
ASUS43 KFSD 010602
RWRSD

WEATHER ROUNDUP FOR SOUTH DAKOTA
NATIONAL WEATHER SERVICE SIOUX FALLS SD
100 AM CDT MON MAY 01 2017

NOTE: "FAIR" INDICATES FEW OR NO CLOUDS BELOW 12,000 FEET WITH NO
SIGNIFICANT WEATHER AND/OR OBSTRUCTIONS TO VISIBILITY.


SDZ001>005-009-010-012>017-010700-
NORTHWEST AND NORTH CENTRAL SOUTH DAKOTA

CITY           SKY/WX    TMP DP  RH WIND       PRES   REMARKS
BUFFALO          N/A     45  27  49 W6        29.77F
FAITH            N/A     46  22  38 SE7       29.81F
MOBRIDGE       CLOUDY    40  23  50 N9        29.77F
$$

SDZ012>016-024>037-041>051-057-063-072>074-010700-
SOUTHWEST AND SOUTH CENTRAL SOUTH DAKOTA

CITY           SKY/WX    TMP DP  RH WIND       PRES   REMARKS
RAPID CTY ARPT CLOUDY    46  27  47 E3        29.83F
PIERRE         MOCLDY    38  21  50 N8        29.76F
CUSTER         CLEAR     33  18  53 NW5       29.86F WCI  29
ELLSWORTH AFB  CLOUDY    45  27  48 N3        29.82F
PHILIP         CLOUDY    34  28  79 W6        29.81F WCI  29
PINE RIDGE     CLOUDY    33  27  78 CALM      29.82F
SPEARFISH      CLOUDY    43  25  49 CALM      29.85F
WINNER         FAIR      39  26  59 NW6       29.73F
$$

SDZ004>011-016>023-039-040-010700-
NORTHEAST SOUTH DAKOTA

CITY           SKY/WX    TMP DP  RH WIND       PRES   REMARKS
ABERDEEN       CLOUDY    43  27  53 N12       29.75F
WATERTOWN      CLOUDY    37  34  89 NE17      29.67F
BROOKINGS      MIX PCPN  35  32  88 NE20G28   29.62F WCI  24
SISSETON         N/A     47  30  51 NE13      29.73F
$$

SDZ017-020-022-023-036>040-048>070-010700-
SOUTHEAST SOUTH DAKOTA

CITY           SKY/WX    TMP DP  RH WIND       PRES   REMARKS
SIOUX FALLS    CLOUDY    34  50 100 N21G30    29.58S FOG     WCI  22
HURON          CLOUDY    42  34  73 N8        29.69F
MITCHELL       LGT RAIN  39  37  92 NE23G30   29.67F
YANKTON        CLOUDY    34  30  86 N16       29.61F WCI  23
$$

ABBREVIATIONS USED IN REMARKS
   TC - TEMPERATURE IN CELSIUS
  WCI - WIND CHILL INDEX
   HX - HEAT INDEX
  VSB - VISIBILITY




USA.gov is the U.S. government's official web portal to all federal, state and local government web resources and services.